{"data":{"norad_id":53433,"epoch":"2026-05-25T04:41:52.380096Z","epoch_age_seconds":51370,"freshness":"FRESH","line1":"1 53433U 22097AX  26145.19574514  .00000708  00000+0  62580-4 0  9991","line2":"2 53433  53.2137 120.6678 0001155  76.3609 283.7512 15.08842175210310","mean_motion":15.08842175,"eccentricity":0.0001155,"inclination_deg":53.2137,"raan_deg":120.6678,"arg_perigee_deg":76.3609,"mean_anomaly_deg":283.7512,"bstar":6.258e-5,"rev_number":21031,"period_min":95.437417104277,"perigee_km":538.93772645014,"apogee_km":540.53575528428,"semimajor_km":6917.8737408672,"source":"CELESTRAK","updated_at":"2026-05-25T13:38:17.406389Z"}}